Tracking 29781 objects as of 15-Oct-2024
HD Live streaming from Space Station
objects crossing your sky now

DELTA 1 DEB

Track DELTA 1 DEB now!
10-day predictions


NORAD ID: 21287
Int'l Code: 1975-052Y
Perigee: 1,101.3 km
Apogee: 1,298.4 km
Inclination: 99.7 °
Period: 109.3 minutes
Semi major axis: 7570 km
RCS: 0.2374 m2 (medium)
Launch date: June 12, 1975
Source: United States (US)
Launch site: AIR FORCE WESTERN TEST RANGE (AFWTR)

Note: This is SATELLITE DEBRIS
Your satellite tracking list
Your tracking list is empty




NASA's NSSDC Master Catalog

Two Line Element Set (TLE):
1 21287U 75052Y   24288.47742720  .00000058  00000-0  24154-3 0  9998
2 21287  99.6701 111.5122 0130225 250.1745 136.9131 13.17908565609097
Source of the keplerian elements: AFSPC